User: anonymous
Location: Caltech
(34.1382°N, 118.1253°W)
Time: 23:12:00
(UTC-07:00)
Language:

ALOS - Orbit

View from above orbital plane
View from above orbital plane
View from above satellite
View from above satellite

Ground track
Ground track

The orbit data is extracted from the following two-line orbital elements,

1 28931U 06002A   14241.46228201  .00000471  00000-0  10458-3 0   262
2 28931 097.9766 296.9493 0000485 088.4230 039.2288 14.61254850458020
Epoch (UTC): 29 August 2014 11:05:41
Eccentricity: 0.0000485
inclination: 97.9766°
perigee height: 689 km
apogee height: 689 km
right ascension of ascending node: 296.9493°
argument of perigee: 88.4230°
revolutions per day: 14.61254850
mean anomaly at epoch: 39.2288°
orbit number at epoch: 45802

The dashed part of the orbit path shows where the satellite is in the earth's shadow,  

DLR